Temp
5 5 5 6 6 6 6 6 6 6 6 6 6 6 6 6 6 6 6 6 6 5 5 6 6 6 6 6 6 6 6 6 6 6 6 6 6 6 5 5 5 5 5
4 4 4 5 5 6 6 5 5 5 6 6 6 5 5 5 5 5 5 5 5 5 5 5 5 5 5 5 5 5 5 5 5 5 5 5 5 5 5 4 4 5 5
5 4 4 4 4 5 5 5 5 5 5 5 5 5 4 4 4 2 3 4 4 4 5 5 5 5 4 4 4 4 4 4 4 4 4 4 4 4 4 4 4 4 4
3 4 3 3 3 4 4 5 5 5 5 5 4 4 4 3 4 4 4 4 4 4 4 4 4 4 4 4 3 3 4 4 4 4 4 4 3 3 3 3 3 3 4
3 3 3 3 3 2 3 4 4 4 5 5 4 4 3 3 3 3 3 3 3 3 3 3 4 4 3 3 3 3 3 3 3 3 3 3 3 2 2 2 3 3 3
3 3 3 3 2 2 3 3 3 3 3 4 3 3 3 2 2 2 2 3 3 3 2 3 2 2 2 2 2 2 2 2 2 2 2 2 2 2 2 2 2 2 2
3 3 3 2 1 2 2 2 1 2 1 2 2 1 1 2 1 2 1 1 2 2 2 2 2 2 2 2 2 2 1 1 1 1 1 1 1 1 1 2 2 2 1
2 2 2 2 1 1 1 0 1 -0 0 0 0 1 -0 -0 0 1 1 1 1 1 2 2 1 1 1 1 1 1 0 0 1 1 1 1 0 1 1 1 1 1 1
2 2 2 2 1 0 1 1 0 -0 0 -2 -1 -1 -1 -3 -2 -0 1 0 0 0 0 0 1 0 1 1 1 0 -0 -0 -0 0 -0 -0 -0 -0 0 1 1 0 0
2 2 2 2 2 1 0 0 0 -0 1 -1 -1 -1 -1 -2 -3 -2 -2 -1 -1 -1 -1 -1 -0 -0 0 -0 -0 -1 -1 -1 -1 -1 -1 -1 -1 -1 -1 -0 -0 -0 -0
1 1 1 1 1 -1 0 -0 -0 -1 -1 -0 -1 -0 -1 -2 -2 -4 -3 -2 -3 -3 -2 -2 -1 -1 -1 -1 -1 -2 -1 -1 -1 -1 -1 -1 -1 -1 -1 -1 -1 -1 -1
1 1 0 0 0 0 -1 -0 -1 -0 -0 -0 -0 -1 -0 -3 -2 -2 -4 -4 -4 -2 -2 -2 -2 -1 -1 -2 -2 -2 -2 -2 -2 -2 -2 -1 -1 -2 -2 -2 -2 -2 -2
0 0 -0 -0 -1 -0 -1 -1 -1 -1 -1 -1 -1 -2 -2 -4 -4 -2 -2 -3 -3 -2 -2 -2 -2 -2 -2 -3 -2 -2 -2 -2 -2 -3 -2 -2 -2 -3 -3 -2 -2 -2 -2
0 -1 -0 -0 -1 -1 -1 -2 -1 -2 -2 -1 -1 -2 -3 -3 -4 -2 -2 -2 -3 -2 -2 -2 -2 -2 -3 -3 -3 -3 -3 -3 -3 -2 -3 -3 -3 -3 -3 -3 -3 -3 -3
-1 -1 -1 -1 -1 -1 -1 -2 -3 -2 -2 -2 -2 -2 -3 -4 -4 -5 -5 -4 -4 -2 -3 -3 -2 -3 -3 -3 -3 -3 -4 -3 -3 -4 -4 -3 -3 -3 -3 -3 -3 -3 -3
-2 -2 -1 -2 -2 -2 -2 -2 -3 -2 -2 -2 -3 -4 -4 -4 -4 -5 -5 -4 -2 -3 -3 -3 -3 -3 -3 -3 -3 -3 -3 -4 -4 -4 -3 -3 -3 -3 -3 -3 -3 -4 -4
-3 -3 -3 -3 -3 -2 -3 -3 -3 -3 -3 -3 -3 -4 -5 -5 -5 -6 -5 -4 -2 -4 -4 -4 -3 -3 -3 -3 -4 -3 -4 -4 -5 -4 -4 -4 -4 -4 -4 -4 -4 -4 -5
-3 -3 -4 -4 -4 -4 -3 -3 -3 -3 -3 -4 -4 -4 -5 -5 -5 -5 -5 -5 -4 -5 -5 -4 -3 -3 -3 -4 -4 -5 -5 -4 -4 -4 -4 -4 -4 -4 -4 -4 -4 -5 -6
-4 -5 -5 -4 -4 -4 -4 -3 -4 -4 -4 -4 -4 -5 -5 -5 -6 -6 -6 -5 -5 -5 -4 -4 -4 -4 -5 -4 -6 -6 -5 -4 -4 -5 -4 -4 -4 -4 -5 -5 -6 -7 -8
-4 -5 -5 -5 -4 -4 -4 -4 -4 -3 -4 -4 -5 -5 -6 -6 -6 -6 -6 -6 -6 -6 -5 -5 -5 -5 -5 -6 -5 -5 -5 -5 -5 -5 -5 -4 -5 -5 -6 -6 -7 -8 -9
-4 -5 -4 -4 -4 -4 -4 -4 -4 -3 -4 -5 -5 -5 -6 -6 -7 -6 -7 -7 -6 -6 -6 -6 -6 -6 -6 -6 -5 -5 -5 -6 -5 -5 -5 -6 -7 -7 -7 -8 -9 -9 -10
-4 -5 -4 -5 -4 -4 -5 -5 -5 -4 -5 -5 -6 -6 -6 -6 -6 -6 -6 -7 -6 -6 -6 -8 -8 -7 -6 -5 -6 -5 -6 -6 -5 -6 -7 -8 -8 -8 -8 -9 -10 -10 -11
-5 -5 -4 -5 -5 -5 -5 -5 -5 -5 -6 -6 -6 -6 -6 -6 -6 -6 -7 -7 -6 -8 -8 -7 -7 -6 -6 -6 -5 -6 -6 -6 -6 -7 -8 -8 -8 -9 -10 -10 -11 -12 -12
-5 -5 -5 -5 -5 -5 -5 -5 -6 -6 -6 -6 -6 -6 -6 -7 -7 -7 -7 -7 -7 -8 -8 -7 -7 -6 -6 -6 -6 -6 -6 -7 -8 -8 -8 -9 -9 -10 -11 -12 -12 -13 -13
-5 -5 -6 -6 -6 -6 -6 -6 -6 -6 -6 -6 -6 -7 -7 -7 -7 -7 -7 -8 -8 -8 -7 -6 -6 -6 -6 -7 -7 -7 -7 -9 -8 -9 -9 -10 -10 -10 -12 -12 -13 -13 -13
-6 -6 -6 -6 -6 -6 -6 -6 -6 -6 -6 -7 -7 -8 -8 -7 -7 -8 -8 -9 -7 -7 -6 -6 -6 -6 -6 -7 -7 -8 -9 -8 -9 -9 -10 -11 -11 -11 -10 -12 -13 -14 -14
Height
3141 3142 3143 3144 3145 3147 3149 3150 3152 3154 3157 3158 3160 3161 3162 3163 3164 3165 3167 3168 3169 3170 3170 3170 3171 3171 3172 3172 3172 3172 3173 3173 3173 3173 3173 3173 3172 3171 3170 3169 3168 3166 3164
3135 3137 3139 3140 3140 3142 3144 3145 3147 3149 3151 3154 3156 3157 3158 3159 3160 3162 3163 3164 3166 3167 3167 3168 3168 3169 3170 3170 3170 3170 3170 3170 3170 3170 3169 3169 3168 3168 3167 3165 3164 3163 3160
3129 3131 3133 3134 3134 3136 3138 3140 3142 3144 3146 3148 3151 3152 3154 3156 3158 3158 3159 3161 3162 3163 3164 3165 3165 3166 3167 3166 3167 3168 3168 3167 3167 3167 3166 3165 3164 3164 3163 3161 3159 3157 3154
3116 3122 3128 3126 3129 3131 3133 3134 3137 3139 3141 3142 3145 3147 3149 3151 3153 3154 3155 3156 3157 3159 3159 3160 3161 3162 3163 3163 3164 3164 3164 3163 3163 3162 3161 3161 3159 3158 3157 3155 3154 3151 3149
3115 3119 3120 3118 3116 3120 3126 3129 3131 3135 3135 3137 3139 3142 3144 3146 3148 3150 3151 3152 3153 3154 3155 3155 3157 3159 3160 3159 3160 3159 3160 3160 3159 3158 3157 3156 3155 3154 3152 3149 3147 3144 3142
3108 3111 3113 3114 3112 3114 3118 3119 3122 3127 3129 3130 3133 3135 3138 3140 3142 3144 3146 3148 3149 3150 3151 3152 3152 3153 3154 3155 3155 3155 3155 3155 3154 3153 3152 3150 3148 3147 3146 3144 3140 3137 3134
3099 3101 3103 3105 3105 3104 3108 3109 3111 3120 3123 3123 3126 3127 3130 3133 3135 3138 3140 3143 3144 3146 3147 3147 3149 3148 3148 3149 3150 3150 3150 3149 3149 3148 3147 3146 3144 3143 3140 3137 3134 3131 3126
3089 3091 3092 3095 3098 3099 3104 3105 3105 3112 3116 3118 3119 3122 3124 3127 3129 3132 3135 3137 3138 3140 3141 3142 3143 3144 3145 3145 3144 3145 3144 3143 3143 3142 3141 3139 3138 3136 3133 3130 3127 3123 3119
3080 3082 3084 3087 3090 3093 3097 3097 3103 3106 3105 3109 3112 3114 3114 3118 3124 3126 3128 3132 3134 3135 3135 3136 3138 3138 3139 3140 3141 3140 3140 3139 3137 3136 3135 3134 3131 3129 3126 3123 3118 3114 3110
3073 3075 3077 3079 3081 3085 3089 3095 3095 3097 3098 3100 3106 3107 3110 3113 3118 3122 3123 3126 3128 3129 3130 3131 3132 3133 3134 3135 3135 3134 3134 3134 3132 3131 3129 3127 3125 3122 3118 3115 3111 3106 3103
3067 3068 3071 3073 3073 3077 3082 3087 3089 3090 3090 3094 3098 3102 3106 3107 3110 3114 3117 3119 3121 3122 3123 3125 3126 3127 3128 3128 3128 3128 3128 3127 3126 3124 3122 3121 3118 3114 3111 3107 3103 3099 3096
3060 3061 3063 3066 3067 3069 3073 3078 3082 3084 3086 3088 3091 3095 3096 3102 3105 3106 3111 3111 3114 3116 3117 3117 3119 3120 3122 3122 3123 3123 3122 3121 3120 3118 3115 3113 3110 3106 3102 3098 3094 3090 3086
3052 3054 3056 3058 3061 3063 3067 3068 3072 3075 3077 3081 3084 3088 3090 3096 3099 3101 3104 3105 3109 3111 3113 3114 3115 3114 3115 3116 3117 3117 3115 3115 3114 3111 3108 3105 3101 3098 3094 3090 3086 3081 3076
3044 3047 3049 3050 3052 3055 3059 3064 3067 3069 3072 3077 3080 3081 3086 3091 3094 3097 3099 3100 3103 3105 3108 3110 3108 3109 3110 3110 3111 3109 3110 3108 3107 3104 3100 3097 3093 3089 3085 3080 3077 3073 3068
3036 3039 3041 3043 3045 3049 3052 3057 3061 3064 3067 3069 3071 3074 3077 3082 3085 3091 3091 3094 3097 3100 3101 3102 3103 3104 3104 3105 3104 3104 3103 3101 3099 3095 3093 3089 3086 3081 3077 3073 3068 3064 3058
3029 3032 3034 3037 3039 3042 3046 3049 3052 3054 3058 3063 3064 3066 3071 3074 3078 3084 3086 3088 3091 3093 3095 3098 3097 3098 3098 3098 3098 3098 3095 3094 3091 3088 3085 3081 3077 3073 3068 3063 3059 3054 3050
3023 3026 3028 3030 3032 3036 3040 3042 3045 3048 3053 3055 3058 3060 3064 3068 3072 3075 3079 3082 3084 3087 3089 3091 3091 3090 3093 3093 3092 3090 3089 3086 3084 3080 3076 3071 3068 3065 3060 3055 3051 3046 3041
3019 3022 3022 3025 3026 3029 3033 3036 3039 3042 3046 3050 3051 3054 3058 3062 3066 3070 3073 3076 3078 3081 3084 3084 3084 3085 3086 3086 3084 3083 3082 3080 3076 3071 3067 3064 3061 3056 3051 3047 3042 3038 3032
3012 3014 3016 3019 3021 3024 3026 3029 3033 3037 3040 3043 3046 3049 3053 3057 3060 3063 3067 3070 3073 3076 3079 3079 3079 3079 3080 3079 3077 3076 3075 3071 3068 3064 3061 3056 3052 3047 3044 3039 3034 3029 3023
3004 3007 3009 3012 3015 3017 3020 3024 3028 3032 3034 3037 3042 3045 3049 3053 3056 3058 3062 3065 3068 3070 3071 3072 3073 3073 3072 3072 3072 3070 3068 3064 3060 3057 3053 3047 3044 3040 3035 3030 3025 3020 3014
2998 3001 3003 3005 3009 3012 3015 3018 3022 3025 3028 3032 3036 3040 3043 3047 3049 3053 3056 3060 3062 3063 3065 3067 3067 3066 3067 3067 3066 3064 3061 3057 3053 3049 3047 3041 3037 3031 3025 3020 3015 3009 3003
2993 2995 2997 3001 3004 3006 3010 3012 3017 3020 3023 3027 3031 3035 3038 3041 3044 3048 3051 3054 3058 3059 3060 3061 3061 3061 3061 3061 3058 3057 3054 3051 3046 3045 3043 3036 3029 3024 3018 3013 3007 3001 2994
2987 2989 2992 2996 2999 3002 3005 3008 3011 3015 3020 3025 3029 3032 3035 3038 3041 3044 3048 3051 3052 3053 3054 3056 3058 3057 3056 3054 3052 3050 3048 3045 3041 3038 3034 3029 3023 3019 3012 3006 2998 2991 2985
2981 2984 2987 2991 2995 2998 3002 3005 3008 3012 3017 3022 3025 3028 3031 3035 3039 3042 3044 3045 3047 3051 3052 3053 3053 3051 3051 3049 3047 3044 3042 3038 3032 3028 3026 3022 3016 3013 3006 2998 2990 2983 2977
2980 2981 2984 2988 2992 2996 3000 3004 3007 3011 3015 3018 3021 3025 3029 3032 3035 3038 3041 3044 3046 3047 3048 3048 3048 3048 3047 3043 3041 3040 3035 3032 3027 3023 3020 3014 3007 3003 3000 2993 2984 2977 2971
2979 2981 2984 2988 2991 2995 2999 3003 3007 3011 3013 3017 3020 3023 3026 3031 3034 3037 3039 3041 3044 3045 3045 3045 3044 3042 3040 3039 3036 3033 3030 3026 3022 3016 3012 3008 3000 2990 2986 2986 2980 2972 2966
Wind_Speed
18 20 20 19 21 20 18 18 19 21 20 20 19 17 18 17 16 15 17 17 14 13 13 12 12 11 10 9 9 8 8 9 10 11 12 12 12 11 10 11 14 18 21
29 24 21 22 23 23 21 20 21 22 21 21 21 21 21 20 18 19 17 18 15 15 16 15 14 13 11 11 11 11 11 11 12 13 13 14 14 14 13 15 19 22 24
40 35 29 27 29 25 25 24 23 24 23 23 23 23 23 22 22 24 21 19 18 17 19 16 15 14 13 13 13 13 14 14 14 15 15 15 16 16 17 19 22 24 26
38 29 33 39 33 28 27 26 26 26 25 25 25 25 25 24 24 24 23 22 21 19 19 19 18 17 16 15 15 15 15 16 16 16 17 17 17 18 20 22 25 27 28
40 41 35 33 44 38 30 29 28 28 28 27 28 28 27 27 25 25 24 24 23 21 21 21 21 19 18 17 17 16 17 17 18 18 18 18 19 21 23 25 27 28 32
38 40 43 41 40 38 41 47 33 32 31 31 29 30 29 28 27 27 25 24 24 24 23 22 21 20 20 20 18 18 18 18 19 20 20 21 22 23 26 28 29 33 35
29 33 39 42 39 41 37 33 41 31 32 33 32 32 31 30 30 29 26 25 25 25 25 24 23 23 22 20 20 20 19 20 20 21 21 22 24 26 28 31 34 36 36
27 29 31 37 36 37 37 32 30 34 36 35 35 33 33 32 33 30 28 27 26 25 25 25 24 24 23 22 21 22 20 20 22 22 23 24 26 28 31 35 38 39 37
25 27 28 31 35 34 36 32 29 24 30 42 37 36 36 34 33 30 29 27 26 25 25 25 25 24 23 23 23 22 23 23 23 24 24 26 28 30 35 38 37 37 37
26 28 29 30 33 32 38 40 35 26 29 29 40 38 35 36 31 29 27 25 25 24 24 25 24 23 23 23 23 23 23 24 24 25 26 28 32 35 37 38 40 39 41
28 27 27 28 30 32 24 40 29 29 25 34 27 34 46 39 34 27 22 19 20 22 23 24 24 24 23 23 23 23 24 24 25 26 28 32 35 38 39 40 40 40 42
29 28 26 25 31 33 30 33 32 26 29 28 28 29 35 43 35 31 29 26 23 21 21 23 24 24 24 23 23 23 23 23 25 28 31 35 38 40 38 38 39 39 40
31 28 26 25 27 31 25 30 34 35 24 21 27 31 34 47 37 36 35 34 30 28 25 23 21 21 20 20 21 22 23 25 27 30 35 37 38 37 38 39 40 40 39
30 29 26 26 25 25 29 32 32 32 39 31 28 32 38 40 41 35 38 35 34 30 24 22 22 19 19 21 22 22 24 26 30 34 35 37 36 38 38 39 39 39 39
28 29 25 23 27 30 24 34 32 32 33 27 29 30 31 36 41 32 36 32 29 27 24 24 24 22 22 22 21 23 26 30 33 35 35 35 37 38 38 38 38 39 40
27 27 26 24 25 28 28 33 36 31 28 30 30 37 36 39 47 35 31 29 33 28 29 25 22 22 21 21 23 27 29 31 32 32 34 36 37 37 37 37 38 39 41
24 26 26 24 23 25 33 27 24 30 33 35 34 35 32 32 32 36 32 31 28 26 25 24 23 21 21 25 30 31 31 28 29 33 35 36 36 36 37 38 39 40 40
20 25 25 26 21 25 24 34 24 29 32 32 24 29 34 35 39 29 30 25 26 25 25 24 22 21 27 30 29 25 25 29 32 33 34 36 35 35 37 38 39 39 40
28 33 28 26 22 22 26 23 21 25 25 27 27 25 28 31 28 32 33 30 26 25 23 23 27 29 30 28 20 23 28 31 32 31 32 35 35 36 37 37 37 39 39
27 24 24 25 20 23 25 28 32 27 28 25 27 28 27 26 25 28 26 25 22 23 30 29 26 29 23 17 21 27 30 30 31 30 32 36 35 35 37 38 38 38 39
22 23 24 23 21 24 26 27 23 21 29 27 28 30 30 28 27 25 22 21 26 27 21 24 18 13 15 20 25 27 28 28 30 30 31 35 33 35 38 38 39 39 39
19 24 21 22 25 25 24 22 21 23 27 31 29 27 28 26 22 21 24 23 20 22 17 12 13 13 18 25 24 26 26 27 29 29 27 29 31 34 37 37 38 39 40
21 24 22 23 22 18 19 28 29 29 28 27 26 24 21 21 23 20 17 19 21 15 14 13 13 19 21 22 23 24 25 27 28 28 26 28 31 31 34 35 37 38 38
18 19 19 23 21 19 18 20 25 25 24 22 23 25 24 19 15 17 20 21 14 11 10 13 18 18 19 20 21 23 25 26 27 29 29 28 32 29 29 33 35 37 36
6 12 9 10 22 16 18 20 22 22 23 23 22 23 19 20 22 23 14 9 7 7 14 16 15 17 18 18 22 23 23 24 26 30 29 30 34 32 27 27 32 34 34
6 12 10 15 14 18 19 18 17 19 19 19 21 19 21 20 13 11 10 3 8 12 13 13 14 16 17 19 21 21 23 25 26 29 31 31 34 39 40 31 28 32 32
Wind_Direction
260 250 249 248 246 241 238 239 236 234 233 231 227 223 225 225 228 221 220 220 222 225 237 242 239 239 240 244 244 247 256 263 268 272 276 279 282 283 287 298 308 313 314
254 258 258 251 248 244 236 235 234 234 231 230 228 223 225 226 225 224 225 232 234 236 241 241 244 247 249 252 256 261 263 267 272 274 277 281 283 283 283 296 310 316 317
234 244 257 263 245 239 237 233 233 233 233 228 227 226 224 225 217 223 232 235 239 237 247 244 246 249 253 256 261 267 272 275 277 281 283 282 280 280 287 299 306 311 313
246 253 256 255 247 242 238 234 233 233 233 232 229 226 228 227 228 230 232 233 237 239 241 246 247 248 250 258 264 270 276 280 283 284 284 283 280 281 289 300 309 309 312
243 246 244 255 250 253 250 238 233 234 233 231 232 230 230 232 230 232 235 238 240 239 238 239 246 252 256 256 261 267 273 279 283 286 287 285 284 287 294 303 307 310 311
244 244 248 248 254 247 250 240 223 226 228 228 229 233 234 234 234 234 236 240 242 243 242 244 246 249 255 261 265 269 274 279 283 285 285 283 284 290 299 303 307 310 311
250 247 247 243 259 254 263 252 232 224 227 223 225 225 232 234 234 235 237 240 243 246 247 247 251 254 255 260 267 271 277 281 284 286 289 291 295 299 304 308 310 310 310
258 253 252 246 255 251 255 273 260 236 227 228 227 229 229 231 236 236 239 241 241 243 248 250 252 256 263 265 271 274 278 283 287 290 291 292 296 302 309 312 312 311 311
256 257 257 254 253 256 256 264 255 261 267 227 224 226 225 227 236 237 239 244 248 249 249 252 256 260 264 272 276 281 285 286 289 289 291 295 301 307 311 311 310 308 308
256 256 254 256 254 252 245 250 259 244 262 253 228 230 233 234 237 247 248 248 250 252 254 257 258 260 264 269 273 277 281 287 290 291 294 298 303 304 308 308 306 307 306
256 258 260 255 252 249 248 235 254 242 238 250 252 253 231 238 230 236 240 245 248 248 252 254 257 260 263 265 269 275 281 285 288 292 296 299 303 305 305 305 306 307 307
254 257 258 259 255 254 234 232 238 235 240 241 236 244 254 233 233 232 236 237 240 241 242 243 247 253 258 265 270 275 278 283 286 290 296 300 302 304 304 304 306 307 309
247 250 255 258 256 246 237 238 235 254 238 262 247 244 243 225 234 237 239 240 239 240 246 252 251 253 259 264 268 271 276 279 286 294 298 300 302 303 306 307 308 309 308
246 242 246 252 248 235 238 236 241 239 256 259 258 254 223 231 227 238 241 240 242 244 248 252 255 256 258 261 265 271 278 286 293 295 298 300 303 306 307 308 307 306 307
241 243 244 244 241 233 233 237 230 245 237 245 245 245 232 220 225 233 239 241 247 253 248 249 252 257 260 262 270 276 283 292 294 298 299 303 305 305 306 305 307 307 308
239 239 241 244 243 238 231 234 229 227 234 248 244 227 241 228 225 233 241 242 253 254 249 250 253 257 264 268 271 277 284 289 295 298 301 303 304 304 305 305 307 307 305
243 243 250 249 245 228 224 236 245 234 241 242 255 232 225 222 221 225 234 237 241 249 247 255 260 264 266 274 275 282 286 290 295 294 302 303 302 304 305 307 305 304 305
252 234 241 254 248 231 235 236 245 240 238 244 245 217 223 226 235 236 226 235 242 251 251 254 257 256 269 276 278 282 292 291 295 300 302 300 301 305 306 304 305 306 306
246 245 247 242 241 235 240 237 231 237 238 240 238 229 218 211 230 229 230 231 237 241 246 251 251 259 275 273 287 287 288 293 297 299 299 300 304 305 303 306 308 307 307
246 238 243 241 232 240 246 236 235 249 231 226 231 228 214 215 223 231 227 228 230 235 243 255 265 272 272 285 288 291 294 296 297 299 304 303 303 304 306 309 310 309 309
232 232 240 227 236 230 238 236 229 247 231 224 216 211 219 215 223 222 224 227 237 243 256 265 256 268 274 286 288 291 292 294 298 303 303 301 307 310 309 311 311 312 312
247 227 233 224 242 228 238 229 234 232 223 224 209 204 206 219 219 220 229 237 249 254 238 242 252 265 280 283 289 290 293 297 298 300 301 302 308 310 310 311 312 312 312
229 223 241 230 231 226 219 224 223 215 211 204 207 211 215 217 224 227 231 239 236 221 236 251 263 275 281 286 289 294 297 297 299 302 310 310 308 311 311 314 312 313 315
205 207 210 216 205 202 222 220 207 197 197 206 215 218 219 213 208 217 224 226 233 236 241 272 281 284 285 288 294 300 299 301 308 310 311 313 310 315 316 315 314 314 318
202 189 172 194 206 226 208 199 198 210 212 216 216 213 197 198 215 225 220 204 212 271 279 280 280 284 289 301 301 301 307 310 310 308 313 316 316 319 322 319 315 317 319
219 204 205 187 183 190 190 193 202 213 209 202 194 195 200 223 223 173 169 161 264 271 273 278 286 296 303 303 304 308 310 309 312 313 318 323 322 322 323 327 321 318 321